Concordia, KS

2:19 AM CST on November 17, 2019 (GMT -0600)
Blosser Municipal

Weather History for KCNK - September, 2019

Change the Weather History Date:

Friday, September 27, 2019

  Actual Average Record
Temperature  
Mean Temperature 74 °F 63 °F  
Max Temperature 81 °F 75 °F 98 °F (1892)
Min Temperature 66 °F 51 °F 34 °F (1889)
Degree Days  
Heating Degree Days 0 5  
Month to date heating degree days 0 55  
Since 1 July heating degree days 0 58  
Cooling Degree Days 9 3  
Month to date cooling degree days 340 153  
Year to date cooling degree days 1617 1319  
Growing Degree Days 24 (Base 50)    
Moisture  
Dew Point 64 °F    
Average Humidity 78    
Maximum Humidity 100    
Minimum Humidity 55    
Precipitation  
Precipitation 0.00 in 0.09 in 1.45 in (1973)
Month to date precipitation 2.02 2.64  
Year to date precipitation 30.86 23.74  
Snow  
Snow 0.00 in 0.00 in 0.00 in ()
Month to date snowfall 0.0 0.0  
Year to date snowfall 32.3 13.7  
Since 1 July snowfall 0.0 0.0  
Snow Depth 0.00 in    
Sea Level Pressure  
Sea Level Pressure 29.63 in    
Wind  
Wind Speed 11 mph (NNE)    
Max Wind Speed 21 mph    
Max Gust Speed 28 mph    
Visibility 10 miles    
Events      
T = Trace of Precipitation, MM = Missing Value Source: NWS Daily Summary

Daily Weather History Graph

Daily Weather History Graph

Search for Another Location

Airport or City:

Astronomy

Sep. 27, 2019 Rise Set
Actual Time 7:22 AM CDT 7:19 PM CDT
Civil Twilight 6:55 AM CDT 7:46 PM CDT
Nautical Twilight 6:24 AM CDT 8:17 PM CDT
Astronomical Twilight 5:52 AM CDT 8:49 PM CDT
Moon 5:46 AM CDT (9/27) 7:10 PM CDT (9/27)
Length of Visible Light 12h 50m
Length of Day
11h 57m
Waning Crescent, 2% of the Moon is Illuminated
Sep 27
Waning Crescent
Sep 28
New
Oct 5
First Quarter
Oct 13
Full
Oct 21
Last Quarter

Hourly Weather History & Observations

Time (CDT) Temp. Heat Index Dew Point Humidity Pressure Visibility Wind Dir Wind Speed Gust Speed Precip Events Conditions
12:55 AM 72.0 °F - 66.0 °F 81% 29.63 in 10.0 mi South 10.4 mph 20.7 mph N/A   Overcast
1:08 AM 72.0 °F - 66.0 °F 81% 29.66 in 10.0 mi South 12.7 mph 19.6 mph N/A   Overcast
1:55 AM 72.0 °F - 66.9 °F 84% 29.60 in 10.0 mi South 10.4 mph 18.4 mph N/A   Overcast
2:55 AM 72.0 °F - 68.0 °F 87% 29.57 in 10.0 mi South 13.8 mph - N/A   Overcast
3:55 AM 73.0 °F - 69.1 °F 87% 29.53 in 10.0 mi South 12.7 mph 21.9 mph N/A   Overcast
4:21 AM 72.0 °F - 69.1 °F 91% 29.56 in 10.0 mi SSE 13.8 mph - N/A   Scattered Clouds
5:25 AM 71.1 °F - 68.0 °F 90% 29.55 in 10.0 mi SSE 10.4 mph - N/A   Partly Cloudy
5:55 AM 70.0 °F - 68.0 °F 93% 29.51 in 10.0 mi SSE 8.1 mph - N/A   Clear
6:55 AM 68.0 °F - 66.0 °F 93% 29.54 in 10.0 mi NNE 4.6 mph - N/A   Clear
7:55 AM 66.9 °F - 66.0 °F 97% 29.54 in 3.0 mi NE 3.5 mph - N/A   Clear
8:55 AM 70.0 °F - 66.9 °F 90% 29.56 in 10.0 mi ESE 3.5 mph - N/A   Clear
9:55 AM 77.0 °F - 69.1 °F 76% 29.55 in 10.0 mi Variable 3.5 mph - N/A   Clear
10:55 AM 80.1 °F 82.9 °F 69.1 °F 69% 29.56 in 10.0 mi North 5.8 mph - N/A   Clear
11:15 AM 79.0 °F - 69.1 °F 72% 29.61 in 10.0 mi Variable 6.9 mph - N/A   Mostly Cloudy
11:55 AM 75.0 °F - 66.9 °F 76% 29.60 in 10.0 mi NNW 15.0 mph 24.2 mph N/A   Overcast
12:04 PM 73.4 °F - 66.2 °F 78% 29.64 in 10.0 mi NNW 16.1 mph - N/A   Overcast
12:55 PM 75.9 °F - 66.9 °F 74% 29.61 in 10.0 mi North 15.0 mph - N/A   Overcast
1:10 PM 78.1 °F - 66.9 °F 68% 29.65 in 10.0 mi North 8.1 mph 19.6 mph N/A   Scattered Clouds
1:55 PM 80.1 °F 82.3 °F 66.9 °F 64% 29.61 in 10.0 mi North 11.5 mph 19.6 mph N/A   Mostly Cloudy
2:55 PM 79.0 °F - 66.0 °F 64% 29.62 in 10.0 mi North 11.5 mph - N/A   Mostly Cloudy
3:03 PM 80.1 °F 82.1 °F 66.0 °F 62% 29.66 in 10.0 mi NNE 10.4 mph - N/A   Mostly Cloudy
3:14 PM 81.0 °F 83.0 °F 66.0 °F 60% 29.66 in 10.0 mi North 11.5 mph - N/A   Mostly Cloudy
3:55 PM 79.0 °F - 64.9 °F 62% 29.62 in 10.0 mi North 10.4 mph - N/A   Overcast
4:37 PM 81.0 °F 83.0 °F 66.0 °F 60% 29.67 in 10.0 mi NNE 15.0 mph 19.6 mph N/A   Mostly Cloudy
4:46 PM 79.0 °F - 64.9 °F 62% 29.67 in 10.0 mi NNE 12.7 mph 21.9 mph N/A   Overcast
4:55 PM 78.1 °F - 64.9 °F 64% 29.63 in 10.0 mi NNE 12.7 mph - N/A   Overcast
5:24 PM 77.0 °F - 64.0 °F 64% 29.69 in 10.0 mi NNE 12.7 mph - N/A   Overcast
5:31 PM 77.0 °F - 63.0 °F 62% 29.69 in 10.0 mi NNE 9.2 mph - N/A   Overcast
5:55 PM 75.9 °F - 62.1 °F 62% 29.67 in 10.0 mi NE 12.7 mph - N/A   Overcast
6:02 PM 75.0 °F - 61.0 °F 62% 29.71 in 10.0 mi NNE 15.0 mph 20.7 mph N/A   Overcast
6:55 PM 73.0 °F - 57.9 °F 59% 29.70 in 10.0 mi North 11.5 mph - N/A   Overcast
7:55 PM 71.1 °F - 57.9 °F 63% 29.71 in 10.0 mi NNE 10.4 mph - N/A   Mostly Cloudy
8:55 PM 68.0 °F - 55.9 °F 65% 29.73 in 10.0 mi NNE 11.5 mph - N/A   Partly Cloudy
9:55 PM 68.0 °F - 53.1 °F 59% 29.75 in 10.0 mi NNE 12.7 mph - N/A   Overcast
10:55 PM 68.0 °F - 52.0 °F 56% 29.80 in 10.0 mi NE 10.4 mph 21.9 mph N/A   Overcast
11:55 PM 66.9 °F - 52.0 °F 59% 29.83 in 10.0 mi NNE 17.3 mph 26.5 mph N/A   Overcast